Location: Unspecified
(45.6635°N, 122.4424°W)
Time: 13:14:29
(UTC+00:00)

Okean 3 - Visible Passes

Search period start: 11 December 2017 00:00
Search period end: 21 December 2017 00:00
Orbit: 577 x 602 km, 82.5° (Epoch: 10 December)

Date Brightness Start Highest point End Pass type
(mag) Time Alt. Az. Time Alt. Az. Time Alt. Az.
11 Dec 3.4 01:16:12 10° S 01:20:23 86° E 01:24:37 10° N visible
12 Dec 3.9 01:24:25 10° SSW 01:28:33 63° WNW 01:32:44 10° N visible
13 Dec 4.7 01:32:46 10° SSW 01:36:45 42° WNW 01:40:46 10° N visible
14 Dec 5.4 01:41:19 10° SW 01:44:59 29° WNW 01:48:42 10° NNW visible
15 Dec 6.0 01:50:06 10° WSW 01:53:16 21° WNW 01:56:29 10° NNW visible
16 Dec 6.3 01:59:12 10° WSW 02:01:36 15° WNW 02:04:00 10° NNW visible
17 Dec 6.6 02:09:23 10° WNW 02:09:58 10° WNW 02:10:33 10° NW visible
